timestamp,surface_pressure_avg,surface_temp_avg,battery_voltage,lat,long
2020-08-07 00:09:01+00:00,319.2797,17.2,13.05,47.84626,-54.09684
2020-08-07 00:19:01+00:00,327.8131,17.2,12.81,47.84626,-54.09684
2020-08-07 00:29:01+00:00,334.9313,17.19,12.81,47.84626,-54.09684
2020-08-07 00:39:01+00:00,337.2747,17.19,12.81,47.84626,-54.09684
2020-08-07 00:49:01+00:00,342.5829,17.11,12.81,47.84626,-54.09684
2020-08-07 00:59:01+00:00,347.3962,17.1,12.81,47.84626,-54.09684
2020-08-07 01:09:01+00:00,346.913,17.1,12.81,47.84626,-54.09684
2020-08-07 01:19:01+00:00,347.49300000000005,17.1,12.73,47.84626,-54.09684
2020-08-07 01:29:01+00:00,353.5013,17.1,12.73,47.84626,-54.09684
2020-08-07 01:39:01+00:00,354.7162,17.1,12.73,47.84626,-54.09684
2020-08-07 01:49:01+00:00,351.3113,17.11,12.73,47.84626,-54.09684
2020-08-07 01:59:01+00:00,355.233,17.13,12.73,47.84626,-54.09684
2020-08-07 02:09:01+00:00,361.0229,17.12,12.73,47.84626,-54.09684
2020-08-07 02:19:01+00:00,355.55300000000005,17.12,12.73,47.84626,-54.09684
2020-08-07 02:29:01+00:00,349.3164,17.15,12.73,47.84626,-54.09684
2020-08-07 02:39:01+00:00,350.9696,17.14,12.73,47.84626,-54.09684
2020-08-07 02:49:01+00:00,350.093,17.12,12.73,47.84626,-54.09684
2020-08-07 02:59:01+00:00,345.7346,17.1,12.73,47.84626,-54.09684
2020-08-07 03:09:01+00:00,341.9096,17.1,12.73,47.84626,-54.09684
2020-08-07 03:19:01+00:00,342.1995,17.1,12.73,47.84626,-54.09684
2020-08-07 03:29:01+00:00,339.293,17.1,12.73,47.84626,-54.09684
2020-08-07 03:39:01+00:00,332.6997,17.1,12.73,47.84626,-54.09684
2020-08-07 03:49:01+00:00,328.3013,17.1,12.73,47.84626,-54.09684
2020-08-07 03:59:01+00:00,326.5262,17.1,12.73,47.84626,-54.09684
2020-08-07 04:09:01+00:00,319.9479,17.12,12.73,47.84626,-54.09684
2020-08-07 04:19:01+00:00,310.4147,17.16,12.73,47.84626,-54.09684
2020-08-07 04:29:01+00:00,305.3947,17.18,12.73,47.84626,-54.09684
2020-08-07 04:39:01+00:00,299.8713,17.18,12.73,47.84626,-54.09684
2020-08-07 04:49:01+00:00,291.2714,17.18,12.73,47.84626,-54.09684
2020-08-07 04:59:01+00:00,284.45799999999997,17.18,12.73,47.84626,-54.09684
2020-08-07 05:09:01+00:00,279.5614,17.18,12.73,47.84626,-54.09684
2020-08-07 05:19:01+00:00,272.7714,17.18,12.73,47.84626,-54.09684
2020-08-07 05:29:01+00:00,263.5548,17.18,12.73,47.84626,-54.09684
2020-08-07 05:39:01+00:00,254.148,17.19,12.73,47.84626,-54.09684
2020-08-07 05:49:01+00:00,246.3014,17.19,12.73,47.84626,-54.09684
2020-08-07 05:59:01+00:00,240.0264,17.2,12.73,47.84626,-54.09684
2020-08-07 06:09:01+00:00,231.5548,17.2,12.73,47.84626,-54.09684
2020-08-07 06:19:01+00:00,223.3365,17.2,12.73,47.84626,-54.09684
2020-08-07 06:29:01+00:00,216.5464,17.2,12.73,47.84626,-54.09684
2020-08-07 06:39:01+00:00,211.6981,17.21,12.73,47.84626,-54.09684
2020-08-07 06:49:01+00:00,205.9631,17.23,12.73,47.84626,-54.09684
2020-08-07 06:59:01+00:00,199.9665,17.24,12.73,47.84626,-54.09684
2020-08-07 07:09:01+00:00,196.3164,17.25,12.73,47.84626,-54.09684
2020-08-07 07:19:01+00:00,194.3181,17.23,12.65,47.84626,-54.09684
2020-08-07 07:29:01+00:00,190.6098,17.21,12.65,47.84626,-54.09684
2020-08-07 07:39:01+00:00,188.7264,17.21,12.65,47.84626,-54.09684
2020-08-07 07:49:01+00:00,189.3115,17.21,12.65,47.84626,-54.09684
2020-08-07 07:59:01+00:00,187.6148,17.2,12.65,47.84626,-54.09684
2020-08-07 08:09:01+00:00,189.9181,17.2,12.65,47.84626,-54.09684
2020-08-07 08:19:01+00:00,195.0148,17.2,12.65,47.84626,-54.09684
2020-08-07 08:29:01+00:00,196.3582,17.25,12.65,47.84626,-54.09684
2020-08-07 08:39:01+00:00,198.6948,17.3,12.65,47.84626,-54.09684
2020-08-07 08:49:01+00:00,203.8881,17.3,12.65,47.84626,-54.09684
2020-08-07 08:59:01+00:00,208.3548,17.3,12.65,47.84626,-54.09684
2020-08-07 09:09:01+00:00,211.8715,17.3,12.65,47.84626,-54.09684
2020-08-07 09:19:01+00:00,218.2515,17.32,12.65,47.84626,-54.09684
2020-08-07 09:29:01+00:00,224.8547,17.35,12.65,47.84626,-54.09684
2020-08-07 09:39:01+00:00,228.6447,17.37,12.65,47.84626,-54.09684
2020-08-07 09:49:01+00:00,230.9314,17.37,12.65,47.84626,-54.09684
2020-08-07 09:59:01+00:00,236.0714,17.35,12.65,47.84626,-54.09684
2020-08-07 10:09:01+00:00,242.718,17.32,12.65,47.84626,-54.09684
2020-08-07 10:19:01+00:00,246.1081,17.3,12.73,47.84626,-54.09684
2020-08-07 10:29:01+00:00,244.4781,17.3,12.73,47.84626,-54.09684
2020-08-07 10:39:01+00:00,246.3981,17.3,12.73,47.84626,-54.09684
2020-08-07 10:49:01+00:00,253.7764,17.3,12.73,47.84626,-54.09684
2020-08-07 10:59:01+00:00,260.1814,17.29,12.73,47.84626,-54.09684
2020-08-07 11:09:01+00:00,260.0215,17.3,12.73,47.84626,-54.09684
2020-08-07 11:19:01+00:00,263.7514,17.3,13.92,47.84626,-54.09684
2020-08-07 11:29:01+00:00,270.5598,17.3,13.92,47.84626,-54.09684
2020-08-07 11:39:01+00:00,276.2397,17.3,13.92,47.84626,-54.09684
2020-08-07 11:49:01+00:00,276.4415,17.3,13.92,47.84626,-54.09684
2020-08-07 11:59:01+00:00,284.9597,17.3,13.92,47.84626,-54.09684
2020-08-07 12:09:01+00:00,296.4597,17.2,13.92,47.84626,-54.09684
2020-08-07 12:19:01+00:00,304.758,17.2,14.32,47.84626,-54.09684
2020-08-07 12:29:01+00:00,304.9548,17.26,14.32,47.84626,-54.09684
2020-08-07 12:39:01+00:00,312.0947,17.29,14.32,47.84626,-54.09684
2020-08-07 12:49:01+00:00,320.5264,17.19,14.32,47.84626,-54.09684
2020-08-07 12:59:01+00:00,326.1213,17.09,14.32,47.84626,-54.09684
2020-08-07 13:09:01+00:00,329.7613,17.02,14.32,47.84626,-54.09684
2020-08-07 13:19:01+00:00,336.3263,17.05,14.4,47.84626,-54.09684
2020-08-07 13:29:01+00:00,338.6579,16.9,14.4,47.84626,-54.09684
2020-08-07 13:39:01+00:00,336.9413,16.9,14.4,47.84626,-54.09684
2020-08-07 13:49:01+00:00,338.7014,16.9,14.4,47.84626,-54.09684
2020-08-07 13:59:01+00:00,342.3780000000001,16.9,14.4,47.84626,-54.09684
2020-08-07 14:09:01+00:00,342.6628,16.9,14.4,47.84626,-54.09684
2020-08-07 14:19:01+00:00,339.9213,16.91,14.32,47.84626,-54.09684
2020-08-07 14:29:01+00:00,339.0031,16.96,14.32,47.84626,-54.09684
2020-08-07 14:39:01+00:00,341.5212,16.99,14.32,47.84626,-54.09684
2020-08-07 14:49:01+00:00,340.1447,16.99,14.32,47.84626,-54.09684
2020-08-07 14:59:01+00:00,335.1147,16.9,14.32,47.84626,-54.09684
2020-08-07 15:09:01+00:00,333.30300000000005,16.84,14.32,47.84626,-54.09684
2020-08-07 15:19:01+00:00,331.603,16.85,14.24,47.84626,-54.09684
2020-08-07 15:29:01+00:00,329.2996,16.84,14.24,47.84626,-54.09684
2020-08-07 15:39:01+00:00,325.7946,16.8,14.24,47.84626,-54.09684
2020-08-07 15:49:01+00:00,324.0547,16.8,14.24,47.84626,-54.09684
2020-08-07 15:59:01+00:00,319.7164,16.8,14.24,47.84626,-54.09684
2020-08-07 16:09:01+00:00,316.3146,16.8,14.24,47.84626,-54.09684
2020-08-07 16:19:01+00:00,313.3879,16.9,14.08,47.84626,-54.09684
2020-08-07 16:29:01+00:00,308.0497,17.02,14.08,47.84626,-54.09684
2020-08-07 16:39:01+00:00,298.7913,17.15,14.08,47.84626,-54.09684
2020-08-07 16:49:01+00:00,293.3748,17.2,14.08,47.84626,-54.09684
2020-08-07 16:59:01+00:00,288.3331,17.31,14.08,47.84626,-54.09684
2020-08-07 17:09:01+00:00,281.1847,17.4,14.08,47.84626,-54.09684
2020-08-07 17:19:01+00:00,270.7414,17.49,14.0,47.84626,-54.09684
2020-08-07 17:29:01+00:00,264.9464,17.5,14.0,47.84626,-54.09684
2020-08-07 17:39:01+00:00,258.2847,17.5,14.0,47.84626,-54.09684
2020-08-07 17:49:01+00:00,251.2614,17.58,14.0,47.84626,-54.09684
2020-08-07 17:59:01+00:00,243.0947,17.6,14.0,47.84626,-54.09684
2020-08-07 18:09:01+00:00,234.7548,17.63,14.0,47.84626,-54.09684
2020-08-07 18:19:01+00:00,228.0831,17.66,13.92,47.84626,-54.09684
2020-08-07 18:29:01+00:00,222.9664,17.6,13.92,47.84626,-54.09684
2020-08-07 18:39:01+00:00,215.6581,17.66,13.92,47.84626,-54.09684
2020-08-07 18:49:01+00:00,207.3348,17.69,13.92,47.84626,-54.09684
2020-08-07 18:59:01+00:00,203.8948,17.66,13.92,47.84626,-54.09684
2020-08-07 19:09:01+00:00,201.2048,17.6,13.92,47.84626,-54.09684
2020-08-07 19:19:01+00:00,195.2981,17.5,13.6,47.84626,-54.09684
2020-08-07 19:29:01+00:00,191.7748,17.5,13.6,47.84626,-54.09684
2020-08-07 19:39:01+00:00,192.9048,17.44,13.6,47.84626,-54.09684
2020-08-07 19:49:01+00:00,192.3665,17.4,13.6,47.84626,-54.09684
2020-08-07 19:59:01+00:00,189.2348,17.4,13.6,47.84626,-54.09684
2020-08-07 20:09:01+00:00,188.0898,17.4,13.6,47.84626,-54.09684
2020-08-07 20:19:01+00:00,190.8598,17.4,13.53,47.84626,-54.09684
2020-08-07 20:29:01+00:00,196.3098,17.4,13.53,47.84626,-54.09684
2020-08-07 20:39:01+00:00,197.1831,17.4,13.53,47.84626,-54.09684
2020-08-07 20:49:01+00:00,198.4981,17.4,13.53,47.84626,-54.09684
2020-08-07 20:59:01+00:00,206.0481,17.4,13.53,47.84626,-54.09684
2020-08-07 21:09:01+00:00,211.5814,17.4,13.53,47.84626,-54.09684
2020-08-07 21:19:01+00:00,212.2631,17.48,13.44,47.84626,-54.09684
2020-08-07 21:29:01+00:00,214.9514,17.52,13.44,47.84626,-54.09684
2020-08-07 21:39:01+00:00,223.1731,17.59,13.44,47.84626,-54.09684
2020-08-07 21:49:01+00:00,229.7331,17.59,13.44,47.84626,-54.09684
2020-08-07 21:59:01+00:00,231.8814,17.51,13.44,47.84626,-54.09684
2020-08-07 22:09:01+00:00,236.8864,17.51,13.44,47.84626,-54.09684
2020-08-07 22:19:01+00:00,243.2164,17.5,13.29,47.84626,-54.09684
2020-08-07 22:29:01+00:00,246.5298,17.5,13.29,47.84626,-54.09684
2020-08-07 22:39:01+00:00,249.5714,17.58,13.29,47.84626,-54.09684
2020-08-07 22:49:01+00:00,254.8831,17.6,13.29,47.84626,-54.09684
2020-08-07 22:59:01+00:00,260.4431,17.6,13.29,47.84626,-54.09684
2020-08-07 23:09:01+00:00,263.1998,17.6,13.29,47.84626,-54.09684
2020-08-07 23:19:01+00:00,265.5514,17.69,12.97,47.84626,-54.09684
2020-08-07 23:29:01+00:00,270.938,17.7,12.97,47.84626,-54.09684
2020-08-07 23:39:01+00:00,275.0881,17.5,12.97,47.84626,-54.09684
2020-08-07 23:49:01+00:00,277.6114,17.7,12.97,47.84626,-54.09684
2020-08-07 23:59:01+00:00,282.223,17.7,12.97,47.84626,-54.09684
